Location: Unspecified
(0.0000°N, 0.0000°E)
Time: 04:51:28
(UTC+00:00)

Amateur Radio Satellites - All Passes

Search period start: 22 November 2014 04:21
Search period end: 23 November 2014 04:21
Location: Unspecified, 0.0000°N, 0.0000°E

Satellite Date Start Highest point End Downlink Frequencies (MHz)
Time Altitude Azimuth
JAS-2 22 Nov 04:41:49 04:47:59 55° 102° (ESE) 04:53:28 435.910
Cubesat XI-IV 22 Nov 05:00:11 05:03:23 16° 103° (ESE) 05:06:35 437.490
RS-15 22 Nov 05:19:23 05:27:33 21° 247° (WSW) 05:36:00 29.354- 29.394
PRISM 22 Nov 05:28:16 05:32:15 46° 78° (ENE) 05:36:14 437.425
JUGNU 22 Nov 05:32:21 05:36:07 17° 14° (NNE) 05:39:53 437.505
SRMSAT 22 Nov 05:35:04 05:36:29 11° 6° (N) 05:37:53 437.500
O/OREOS (USA 219) 22 Nov 05:38:26 05:43:00 80° 104° (ESE) 05:47:30 437.305
CUBESAT XI-V 22 Nov 05:39:09 05:42:17 18° 78° (ENE) 05:45:25 437.345
CUTE-I 22 Nov 05:40:58 05:46:05 51° 103° (ESE) 05:51:13 437.470
MOZHAYETS 4 22 Nov 05:49:53 05:51:17 11° 258° (WSW) 05:52:41
STRAND 1 22 Nov 05:54:21 05:58:47 29° 77° (ENE) 06:03:11 437.568
PCSat 22 Nov 06:23:02 06:27:16 24° 70° (ENE) 06:31:31 145.827
JAS-2 22 Nov 06:31:09 06:32:28 11° 287° (WNW) 06:33:46 435.910
Cubesat XI-IV 22 Nov 06:38:32 06:43:11 32° 283° (WNW) 06:47:52 437.490
GONETS M04 22 Nov 07:15:14 07:22:09 26° 93° (E) 07:29:03
CUBESAT XI-V 22 Nov 07:15:49 07:19:27 23° 258° (WSW) 07:23:06 437.345
JUGNU 22 Nov 07:20:06 07:25:37 38° 20° (NNE) 07:31:06 437.505
BEESAT 3 22 Nov 07:21:13 07:25:08 45° 68° (ENE) 07:29:01 437.485
SRMSAT 22 Nov 07:22:24 07:26:34 19° 15° (NNE) 07:30:44 437.500
AIST 1 22 Nov 07:26:40 07:30:51 50° 86° (E) 07:35:02
BEESAT 2 22 Nov 07:32:43 07:36:46 59° 68° (ENE) 07:40:46 435.950
HO-68 22 Nov 07:33:00 07:38:03 21° 105° (ESE) 07:43:05 435.675
STRAND 1 22 Nov 07:34:28 07:37:41 17° 257° (WSW) 07:40:54 437.568
CANX-2 22 Nov 07:35:36 07:36:10 10° 102° (ESE) 07:36:43 2200.000
AIST 2 22 Nov 07:47:02 07:50:53 35° 68° (ENE) 07:54:41 435.215
COMPASS 1 22 Nov 07:52:01 07:52:54 11° 102° (ESE) 07:53:47 437.405
PCSat 22 Nov 08:06:16 08:10:24 23° 250° (WSW) 08:14:34 145.827
CUTE 1.7 & AOD 2 22 Nov 08:07:39 08:11:23 29° 102° (ESE) 08:15:08 437.475
Oscar 11 22 Nov 08:30:28 08:32:53 15° 102° (ESE) 08:35:17 145.826/435.025
DOVE 4 22 Nov 08:36:55 08:40:47 32° 103° (ESE) 08:44:51 437.250
DX 1 22 Nov 08:45:41 08:49:01 22° 102° (ESE) 08:52:21 434.975-435.025
SEEDS 22 Nov 08:45:57 08:50:13 89° 285° (WNW) 08:54:32 437.485
GOMX 1 22 Nov 08:57:35 09:01:51 85° 281° (WNW) 09:06:24 467.674
BRITE-PL 22 Nov 09:03:26 09:07:26 45° 281° (W) 09:11:41 437.365/2234.400
CANX-2 22 Nov 09:08:02 09:11:49 31° 281° (WNW) 09:15:38 2200.000
JUGNU 22 Nov 09:08:46 09:14:44 79° 202° (SSW) 09:20:40 437.505
ZACube-1 22 Nov 09:10:07 09:13:10 19° 103° (ESE) 09:16:16 437.345
SRMSAT 22 Nov 09:10:25 09:16:06 46° 20° (NNE) 09:21:45 437.500
GONETS M04 22 Nov 09:10:39 09:18:33 39° 273° (W) 09:26:31
AAUSAT CUBESAT 2 22 Nov 09:12:09 09:16:15 52° 281° (WNW) 09:20:24 437.432
HO-68 22 Nov 09:18:48 09:25:25 42° 285° (WNW) 09:32:04 435.675
AISAT 22 Nov 09:19:47 09:22:11 15° 103° (ESE) 09:24:35 437.250
COMPASS 1 22 Nov 09:24:41 09:28:22 29° 281° (WNW) 09:32:04 437.405
HUMSAT D 22 Nov 09:27:38 09:30:22 17° 102° (ESE) 09:33:07 437.325/437.525
DELFI C3 22 Nov 09:40:03 09:44:07 61° 281° (WNW) 09:48:13 145.870
BUGSAT 1 22 Nov 09:42:15 09:42:55 10° 78° (ENE) 09:43:35 437.445
FUNcube-1 22 Nov 09:45:10 09:49:25 60° 102° (ESE) 09:53:48 145.935
50 SAT 22 Nov 09:45:48 09:49:07 24° 102° (ESE) 09:52:28 437.505
CUTE 1.7 & AOD 2 22 Nov 09:45:55 09:47:03 11° 282° (WNW) 09:48:12 437.475
CINEMA 3 22 Nov 09:46:00 09:50:10 47° 281° (W) 09:54:34 145.822/145.860
TIGRISAT 22 Nov 09:48:36 09:52:24 28° 79° (ENE) 09:56:06 435.000
UKube-1 22 Nov 09:49:55 09:53:59 42° 282° (WNW) 09:58:05 .
CUBEBUG 2 22 Nov 09:50:05 09:54:24 76° 281° (WNW) 09:58:55 437.445
ISS 22 Nov 09:51:11 09:54:18 39° 55° (NE) 09:57:27 145.825
UNISAT 6 22 Nov 09:59:19 10:03:30 41° 79° (ENE) 10:07:34 437.425
UWE-3 22 Nov 09:59:49 10:04:07 66° 281° (WNW) 10:08:34 435.000/436.395/437.385
POLYITAN 1 22 Nov 09:59:52 10:03:30 26° 78° (ENE) 10:07:05 437.675
QB50P2 22 Nov 10:03:36 10:07:22 30° 78° (ENE) 10:11:06 145.880/145.840
Oscar 11 22 Nov 10:05:21 10:08:47 23° 282° (WNW) 10:12:13 145.826/435.025
DUCHIFAT 1 22 Nov 10:12:21 10:16:22 39° 78° (ENE) 10:20:21 145.980
ESTCUBE 1 22 Nov 10:14:16 10:17:51 24° 102° (ESE) 10:21:27 437.505/2401.250
DX 1 22 Nov 10:22:30 10:25:00 15° 282° (WNW) 10:27:29 434.975-435.025
ANTELSAT 22 Nov 10:27:15 10:31:41 75° 258° (WSW) 10:36:00 437.575/2403.000
NANOSAT C BR1 22 Nov 10:30:42 10:35:01 76° 78° (ENE) 10:39:17 145.865
VELOX 1 22 Nov 10:30:52 10:35:08 52° 282° (WNW) 10:39:26 145.980
QB50P1 22 Nov 10:39:57 10:44:16 78° 258° (WSW) 10:48:32 145.935-145.965
ZACube-1 22 Nov 10:46:19 10:49:17 18° 281° (W) 10:52:18 437.345
AISAT 22 Nov 10:55:02 10:58:33 24° 282° (WNW) 11:02:06 437.250
JUGNU 22 Nov 10:58:48 11:03:54 29° 199° (SSW) 11:08:58 437.505
SRMSAT 22 Nov 10:59:27 11:05:19 64° 201° (SSW) 11:11:11 437.500
HUMSAT D 22 Nov 11:02:57 11:05:55 19° 281° (WNW) 11:08:55 437.325/437.525
POPSAT HIP 1 22 Nov 11:04:31 11:08:25 34° 258° (WSW) 11:12:18 437.405
BUGSAT 1 22 Nov 11:14:23 11:18:09 30° 258° (WSW) 11:21:55 437.445
50 SAT 22 Nov 11:22:37 11:24:12 12° 281° (WNW) 11:25:47 437.505
CUBEBUG 1 22 Nov 11:24:13 11:28:08 34° 282° (WNW) 11:32:04 437.445
TIGRISAT 22 Nov 11:27:17 11:28:51 12° 257° (WSW) 11:30:25 435.000
SPROUT 22 Nov 11:30:02 11:33:57 37° 102° (ESE) 11:37:54 437.525
TISAT 1 22 Nov 11:33:52 11:37:56 51° 102° (ESE) 11:42:01 437.305
PHONESAT 2.4 22 Nov 11:34:29 11:35:02 10° 139° (SE) 11:35:36 2401.200-2431.200
POLYITAN 1 22 Nov 11:37:23 11:39:10 12° 258° (WSW) 11:40:57 437.675
QB50P2 22 Nov 11:42:02 11:43:00 11° 258° (WSW) 11:43:59 145.880/145.840
ESTCUBE 1 22 Nov 11:51:51 11:54:28 15° 282° (WNW) 11:57:06 437.505/2401.250
AUBIESAT-1 22 Nov 12:00:00 12:03:27 20° 104° (ESE) 12:06:46 437.475
VERMONT LUNAR 22 Nov 12:00:45 12:04:04 35° 137° (SE) 12:07:23 437.305
M-CUBED/EXP-1 PRIME 22 Nov 12:01:43 12:05:34 24° 105° (ESE) 12:09:14 437.505
SWISSCUBE 22 Nov 12:09:33 12:12:14 15° 103° (ESE) 12:14:55 437.505
CUSAT 1 22 Nov 12:15:57 12:19:49 25° 101° (E) 12:22:54 437.405
DANDE 22 Nov 12:22:15 12:26:27 26° 101° (E) 12:29:45 436.750
BEESAT 22 Nov 12:39:55 12:44:15 35° 102° (ESE) 12:48:36 436.000
SRMSAT 22 Nov 12:49:57 12:54:42 25° 197° (SSW) 12:59:28 437.500
JUGNU 22 Nov 12:50:36 12:53:30 14° 191° (SSW) 12:56:24 437.505
Oscar 19 22 Nov 13:08:20 13:13:28 78° 78° (ENE) 13:18:34 437.125/150
PHONESAT 2.4 22 Nov 13:10:09 13:13:46 53° 317° (NW) 13:17:23 2401.200-2431.200
ITUPSAT 1 22 Nov 13:32:36 13:37:10 46° 282° (WNW) 13:41:44 437.325
AUBIESAT-1 22 Nov 13:34:34 13:38:10 22° 287° (WNW) 13:41:40 437.475
M-CUBED/EXP-1 PRIME 22 Nov 13:37:01 13:40:18 19° 287° (WNW) 13:43:29 437.505
VERMONT LUNAR 22 Nov 13:40:27 13:42:27 14° 318° (NW) 13:44:27 437.305
STARS 22 Nov 13:45:25 13:48:41 21° 102° (ESE) 13:51:58 437.465
SWISSCUBE 22 Nov 13:45:49 13:49:50 27° 282° (WNW) 13:53:52 437.505
ITAMSAT 1 22 Nov 13:51:38 13:56:52 77° 77° (ENE) 14:02:04 435.822/435.867
YUBILEINY 22 Nov 13:58:04 14:06:14 46° 87° (E) 14:14:23 435.215
Gurwin Techsat 1B 22 Nov 13:58:58 14:04:01 44° 78° (ENE) 14:09:02 435.225
HORYU 2 22 Nov 14:08:42 14:11:45 18° 78° (ENE) 14:14:46 437.375
KKS-1 22 Nov 14:15:48 14:20:13 84° 283° (WNW) 14:24:41 437.445
BEESAT 22 Nov 14:20:17 14:21:49 11° 283° (WNW) 14:23:22 436.000
AO-7 22 Nov 14:39:27 14:44:56 20° 73° (ENE) 14:50:22 29.400- 29.500
SO-50 22 Nov 14:42:07 14:46:46 44° 68° (ENE) 14:51:22 436.795
SRMSAT 22 Nov 14:42:15 14:44:36 12° 189° (S) 14:46:58 437.500
RS-15 22 Nov 14:47:17 14:58:23 56° 111° (ESE) 15:09:00 29.354- 29.394
MaSat-1 22 Nov 15:03:57 15:07:22 35° 286° (WNW) 15:10:32 437.345
STARS 22 Nov 15:22:07 15:24:54 17° 282° (WNW) 15:27:43 437.465
Gurwin Techsat 1B 22 Nov 15:42:10 15:43:41 11° 257° (WSW) 15:45:11 435.225
HORYU 2 22 Nov 15:45:00 15:48:09 19° 257° (WSW) 15:51:19 437.375
YUBILEINY 22 Nov 15:56:31 16:02:37 22° 267° (W) 16:08:47 435.215
JAS-2 22 Nov 16:12:51 16:18:41 32° 75° (ENE) 16:25:02 435.910
MOZHAYETS 4 22 Nov 16:26:54 16:31:27 56° 102° (ESE) 16:36:00
AO-7 22 Nov 16:29:20 16:37:19 54° 254° (WSW) 16:45:18 29.400- 29.500
JUGNU 22 Nov 16:31:26 16:33:48 12° 170° (S) 16:36:09 437.505
RS-15 22 Nov 17:01:58 17:10:15 24° 292° (WNW) 17:18:25 29.354- 29.394
PRISM 22 Nov 17:32:57 17:37:03 55° 102° (ESE) 17:41:09 437.425
Cubesat XI-IV 22 Nov 17:37:56 17:43:07 49° 77° (ENE) 17:48:16 437.490
O/OREOS (USA 219) 22 Nov 17:49:25 17:53:48 58° 256° (WSW) 17:58:16 437.305
CUBESAT XI-V 22 Nov 17:57:00 18:01:03 31° 102° (ESE) 18:05:06 437.345
JAS-2 22 Nov 17:57:57 18:03:25 28° 259° (W) 18:09:24 435.910
JUGNU 22 Nov 18:18:44 18:23:29 25° 162° (SSE) 18:28:15 437.505
CUTE-I 22 Nov 18:20:26 18:25:40 53° 257° (WSW) 18:30:52 437.470
SRMSAT 22 Nov 18:22:06 18:25:15 14° 168° (SSE) 18:28:24 437.500
STRAND 1 22 Nov 18:26:24 18:31:27 75° 103° (ESE) 18:36:32 437.568
PCSat 22 Nov 18:58:11 19:03:34 75° 109° (ESE) 19:08:56 145.827
BEESAT 3 22 Nov 19:17:34 19:21:27 52° 111° (ESE) 19:25:23 437.485
Cubesat XI-IV 22 Nov 19:22:04 19:22:53 10° 257° (WSW) 19:23:42 437.490
HO-68 22 Nov 19:25:18 19:29:40 17° 75° (ENE) 19:34:01 435.675
BEESAT 2 22 Nov 19:29:33 19:33:32 71° 112° (ESE) 19:37:34 435.950
AIST 1 22 Nov 19:33:36 19:37:56 75° 94° (E) 19:42:17
CUBESAT XI-V 22 Nov 19:36:24 19:38:14 12° 282° (WNW) 19:40:03 437.345
CANX-2 22 Nov 19:41:35 19:43:29 13° 78° (ENE) 19:45:23 2200.000
AIST 2 22 Nov 19:46:12 19:50:07 45° 111° (ESE) 19:54:05 435.215
GOMX 1 22 Nov 19:46:55 19:48:44 12° 79° (E) 19:50:30 467.674
GONETS M04 22 Nov 19:47:23 19:55:50 53° 87° (E) 20:04:14
BRITE-PL 22 Nov 19:52:34 19:56:54 23° 79° (E) 20:01:02 437.365/2234.400
COMPASS 1 22 Nov 19:56:53 19:58:40 13° 78° (ENE) 20:00:26 437.405
JUGNU 22 Nov 20:06:52 20:12:41 67° 159° (SSE) 20:18:33 437.505
SRMSAT 22 Nov 20:09:48 20:15:01 31° 161° (SSE) 20:20:14 437.500
CUTE 1.7 & AOD 2 22 Nov 20:14:46 20:18:39 36° 79° (ENE) 20:22:31 437.475
UKube-1 22 Nov 20:26:47 20:27:42 11° 77° (ENE) 20:28:36 .
CINEMA 3 22 Nov 20:28:25 20:30:51 14° 79° (E) 20:33:14 145.822/145.860
Oscar 11 22 Nov 20:38:59 20:42:03 19° 78° (ENE) 20:45:07 145.826/435.025
SEEDS 22 Nov 20:52:36 20:56:47 70° 259° (WSW) 21:00:56 437.485
DX 1 22 Nov 20:55:19 20:59:11 30° 78° (ENE) 21:03:02 434.975-435.025
DOVE 4 22 Nov 20:57:45 21:02:54 71° 79° (ENE) 21:07:44 437.250
SHINDAISAT 22 Nov 21:02:28 21:03:57 22° 68° (ENE) 21:05:25 437.305
HO-68 22 Nov 21:10:08 21:17:01 50° 255° (WSW) 21:23:54 435.675
CANX-2 22 Nov 21:15:46 21:19:10 24° 258° (WSW) 21:22:34 2200.000
AAUSAT CUBESAT 2 22 Nov 21:17:43 21:21:39 42° 258° (WSW) 21:25:34 437.432
ZACube-1 22 Nov 21:20:30 21:24:11 26° 79° (E) 21:27:48 437.345
GOMX 1 22 Nov 21:21:35 21:26:39 42° 257° (WSW) 21:31:26 467.674
ISS 22 Nov 21:26:49 21:29:35 25° 126° (SE) 21:32:21 145.825
BRITE-PL 22 Nov 21:30:36 21:35:05 25° 257° (WSW) 21:39:25 437.365/2234.400
COMPASS 1 22 Nov 21:30:48 21:34:09 24° 258° (WSW) 21:37:29 437.405
AISAT 22 Nov 21:31:46 21:35:16 22° 78° (ENE) 21:38:46 437.250
HUMSAT D 22 Nov 21:33:47 21:36:58 21° 79° (ENE) 21:40:05 437.325/437.525
POPSAT HIP 1 22 Nov 21:38:26 21:39:54 12° 102° (ESE) 21:41:23 437.405
DELFI C3 22 Nov 21:42:41 21:46:39 55° 258° (WSW) 21:50:37 145.870
BUGSAT 1 22 Nov 21:46:05 21:47:03 11° 102° (ESE) 21:48:01 437.445
GONETS M04 22 Nov 21:46:40 21:52:14 19° 267° (W) 21:57:50
50 SAT 22 Nov 21:48:29 21:51:56 26° 79° (ENE) 21:55:20 437.505
FUNcube-1 22 Nov 21:55:54 22:00:21 88° 79° (ENE) 22:04:39 145.935
JUGNU 22 Nov 21:56:10 22:01:46 44° 340° (NNW) 22:07:23 437.505
SRMSAT 22 Nov 21:58:20 22:04:20 83° 159° (SSE) 22:10:21 437.500
UKube-1 22 Nov 21:59:44 22:03:36 31° 258° (WSW) 22:07:26 .
CUBEBUG 1 22 Nov 22:00:35 22:02:55 14° 78° (ENE) 22:05:14 437.445
TIGRISAT 22 Nov 22:01:22 22:05:41 45° 102° (ESE) 22:10:07 435.000
CINEMA 3 22 Nov 22:03:43 22:07:50 28° 257° (WSW) 22:11:48 145.822/145.860
CUBEBUG 2 22 Nov 22:03:43 22:08:07 47° 258° (WSW) 22:12:21 437.445
POLYITAN 1 22 Nov 22:07:09 22:10:57 33° 102° (ESE) 22:14:47 437.675
QB50P2 22 Nov 22:10:42 22:14:36 37° 102° (ESE) 22:18:32 145.880/145.840
UWE-3 22 Nov 22:12:17 22:16:33 43° 258° (WSW) 22:20:41 435.000/436.395/437.385
UNISAT 6 22 Nov 22:12:36 22:17:07 68° 102° (ESE) 22:21:45 437.425
Oscar 11 22 Nov 22:15:11 22:17:57 17° 258° (WSW) 22:20:44 145.826/435.025
DUCHIFAT 1 22 Nov 22:19:11 22:23:14 49° 102° (ESE) 22:27:19 145.980
ESTCUBE 1 22 Nov 22:28:23 22:32:34 37° 78° (ENE) 22:36:45 437.505/2401.250
DX 1 22 Nov 22:33:56 22:35:09 11° 257° (WSW) 22:36:22 434.975-435.025
NANOSAT C BR1 22 Nov 22:37:46 22:41:58 85° 281° (W) 22:46:13 145.865
ANTELSAT 22 Nov 22:40:59 22:45:21 48° 282° (WNW) 22:49:51 437.575/2403.000
VELOX 1 22 Nov 22:43:46 22:47:52 35° 258° (WSW) 22:51:56 145.980
QB50P1 22 Nov 22:47:10 22:51:18 60° 282° (WNW) 22:55:29 145.935-145.965
ZACube-1 22 Nov 22:58:21 23:00:16 13° 257° (WSW) 23:02:11 437.345
AISAT 22 Nov 23:08:49 23:11:38 16° 257° (WSW) 23:14:27 437.250
HUMSAT D 22 Nov 23:10:04 23:12:30 15° 258° (WSW) 23:14:55 437.325/437.525
POPSAT HIP 1 22 Nov 23:12:01 23:15:32 26° 282° (WNW) 23:19:06 437.405
BUGSAT 1 22 Nov 23:18:59 23:22:18 25° 282° (WNW) 23:25:37 437.445
CUSAT 1 22 Nov 23:20:07 23:20:37 10° 91° (E) 23:21:08 437.405
50 SAT 22 Nov 23:25:59 23:26:59 11° 258° (WSW) 23:27:59 437.505
DANDE 22 Nov 23:28:40 23:29:16 10° 92° (E) 23:29:52 436.750
CUBEBUG 1 22 Nov 23:35:22 23:39:01 25° 258° (WSW) 23:42:40 437.445
SPROUT 22 Nov 23:38:23 23:42:36 50° 78° (ENE) 23:46:47 437.525
TISAT 1 22 Nov 23:40:31 23:44:48 67° 78° (ENE) 23:49:02 437.305
VERMONT LUNAR 22 Nov 23:42:24 23:45:36 30° 43° (NE) 23:48:48 437.305
JUGNU 22 Nov 23:47:05 23:51:09 19° 345° (NNW) 23:55:15 437.505
SRMSAT 22 Nov 23:48:09 23:53:37 37° 340° (NNW) 23:59:06 437.500
AUBIESAT-1 23 Nov 00:04:11 00:06:15 15° 73° (ENE) 00:08:23 437.475
Oscar 19 23 Nov 00:06:12 00:08:06 12° 103° (ESE) 00:10:00 437.125/150
M-CUBED/EXP-1 PRIME 23 Nov 00:06:16 00:08:45 18° 73° (ENE) 00:11:20 437.505
ITUPSAT 1 23 Nov 00:19:02 00:22:15 18° 77° (ENE) 00:25:28 437.325
SWISSCUBE 23 Nov 00:30:35 00:34:43 29° 78° (ENE) 00:38:50 437.505
ITAMSAT 1 23 Nov 00:50:42 00:52:42 12° 103° (ESE) 00:54:41 435.822/435.867
PHONESAT 2.4 23 Nov 00:53:53 00:57:29 58° 223° (SW) 01:01:06 2401.200-2431.200
CUSAT 1 23 Nov 00:56:39 01:02:46 71° 264° (W) 01:10:37 437.405
BEESAT 23 Nov 01:01:52 01:06:37 71° 78° (ENE) 01:11:22 436.000
DANDE 23 Nov 01:05:46 01:11:43 69° 264° (W) 01:19:30 436.750
VERMONT LUNAR 23 Nov 01:21:42 01:23:58 16° 222° (SW) 01:26:14 437.305
AUBIESAT-1 23 Nov 01:39:16 01:41:04 14° 256° (WSW) 01:42:55 437.475
SRMSAT 23 Nov 01:39:38 01:43:18 16° 347° (NNW) 01:46:57 437.500
JUGNU 23 Nov 01:39:49 01:41:07 11° 354° (N) 01:42:24 437.505
Oscar 19 23 Nov 01:42:19 01:47:08 40° 282° (WNW) 01:51:59 437.125/150
M-CUBED/EXP-1 PRIME 23 Nov 01:42:50 01:43:39 11° 256° (WSW) 01:44:29 437.505
ITUPSAT 1 23 Nov 01:56:06 01:59:53 23° 257° (WSW) 02:03:39 437.325
STARS 23 Nov 01:56:44 02:00:38 30° 78° (ENE) 02:04:29 437.465
SWISSCUBE 23 Nov 02:09:48 02:12:18 14° 257° (WSW) 02:14:48 437.505
HORYU 2 23 Nov 02:21:09 02:24:59 28° 102° (ESE) 02:28:50 437.375
ITAMSAT 1 23 Nov 02:27:07 02:31:53 39° 283° (WNW) 02:36:41 435.822/435.867
RS-15 23 Nov 02:28:20 02:39:23 48° 70° (ENE) 02:50:47 29.354- 29.394
KKS-1 23 Nov 02:29:00 02:33:23 54° 258° (WSW) 02:37:44 437.445
YUBILEINY 23 Nov 02:30:58 02:39:50 88° 93° (E) 02:48:39 435.215
Gurwin Techsat 1B 23 Nov 02:37:17 02:42:30 63° 282° (WNW) 02:47:45 435.225
MaSat-1 23 Nov 02:37:52 02:40:27 76° 252° (WSW) 02:43:19 437.345
SO-50 23 Nov 02:55:27 02:59:50 82° 112° (ESE) 03:04:16 436.795
AO-7 23 Nov 03:03:58 03:11:14 34° 106° (ESE) 03:18:28 29.400- 29.500
JUGNU 23 Nov 03:30:11 03:31:22 11° 5° (N) 03:32:33 437.505
SRMSAT 23 Nov 03:33:10 03:33:31 10° 357° (N) 03:33:52 437.500
STARS 23 Nov 03:35:23 03:36:50 11° 257° (WSW) 03:38:17 437.465
JAS-2 23 Nov 03:50:12 03:52:55 13° 100° (E) 03:55:31 435.910
HORYU 2 23 Nov 03:59:21 04:01:24 13° 282° (WNW) 04:03:27 437.375
